Flag for U.S.A. Weather past 2 weeks in Gainesville, Florida, U.S.A.

Now
82 °F

Sunny.


Feels Like: 83 °F
Forecast: 68 / 87 °F
Wind: 8 mph from Northeast

Location: Gainesville Regional Airport

Current Time: May 22, 2015 at 12:35:28 PM

Latest Report: May 22, 2015 at 11:53 AM


Visibility: 10 mi

Pressure: 30.11 "Hg

Humidity: 55%

Dew point: 64 °F

Location of GainesvilleLocation

Historic Weather in Gainesville — Graph

°F

Gainesville temperature yesterday

Maximum temperature yesterday: 92 °F (at 4:53 PM)
Minimum temperature yesterday: 71 °F (at 4:53 AM)
Average temperature yesterday: 80 °F

Past Weeks' High & Low Weather Summary

 TemperatureHumidityPressure
High92 °F (May 11, 3:53 PM)97% (May 12, 4:53 AM)30.23 "Hg (May 12, 4:53 AM)
Low58 °F (May 8, 2:53 AM)30% (May 7, 3:53 PM)29.89 "Hg (May 21, 5:53 PM)
Average76 °F72%30.09 "Hg
* Reported May 7 10:53 AM — May 22 10:53 AM, Gainesville, Weather by CustomWeather, © 2015

Note: Actual official high and low records may vary slightly from our data, if they occured in-between our weather recording intervals... More about our weather records

Advertising

Gainesville weather history for previous 24 hours

 ConditionsComfort  
Time TempWeatherWind HumidityBarometerVisibility
10:53 AM
Fri, May 22
79 °FSunny.5 mph58%30.11 "Hg10 mi
9:53 AM76 °FSunny.6 mph64%30.10 "Hg10 mi
8:53 AM74 °FSunny.8 mph67%30.09 "Hg10 mi
7:53 AM72 °FSunny.7 mph76%30.06 "Hg9 mi
6:53 AM69 °FClear.No wind84%30.04 "Hg10 mi
5:53 AM69 °FClear.3 mph87%30.02 "Hg10 mi
4:53 AM71 °FClear.6 mph81%30.01 "Hg10 mi
3:53 AM72 °FClear.7 mph84%30.00 "Hg10 mi
2:53 AM73 °FClear.6 mph88%29.99 "Hg10 mi
1:53 AM75 °FClear.5 mph88%30.00 "Hg10 mi
12:53 AM76 °FPassing clouds.7 mph88%30.00 "Hg10 mi
11:53 PM
Thu, May 21
76 °FClear.8 mph88%30.00 "Hg10 mi
10:53 PM77 °FClear.7 mph82%29.98 "Hg10 mi
9:53 PM78 °FClear.9 mph76%29.96 "Hg10 mi
8:53 PM79 °FScattered clouds.8 mph65%29.94 "Hg10 mi
7:53 PM83 °FSunny.12 mph53%29.92 "Hg10 mi
6:53 PM87 °FSunny.14 mph51%29.90 "Hg10 mi
5:53 PM91 °FScattered clouds.12 mph41%29.89 "Hg10 mi
4:53 PM92 °FPassing clouds.14 mph40%29.90 "Hg10 mi
3:53 PM91 °FPassing clouds.10 mph42%29.92 "Hg10 mi
2:53 PM90 °FScattered clouds.12 mph45%29.93 "Hg10 mi
1:53 PM89 °FScattered clouds.14 mph45%29.95 "Hg10 mi
12:53 PM88 °FSunny.6 mph48%29.96 "Hg10 mi
Weather by CustomWeather, © 2015

See weather overviewHow to use our weather pages